Flag for U.S.A. Weather past 2 weeks in Bismarck, North Dakota, U.S.A.

Now
3 °F

Clear.


Feels Like: 3 °F
Forecast: 1 / 30 °F
Wind: No wind

Location: Bismarck Municipal Airport

Current Time: Mar 1, 2015 at 11:41:54 PM

Latest Report: Mar 1, 2015 at 10:52 PM


Visibility: 10 mi

Pressure: 30.48 "Hg

Humidity: 79%

Dew point: -2 °F

Location of BismarckLocation

Historic Weather in Bismarck — Graph

°F

Bismarck temperature yesterday

Maximum temperature yesterday: 21 °F (at 11:52 AM)
Minimum temperature yesterday: 4 °F (at 6:52 AM)
Average temperature yesterday: 13 °F

Past Weeks' High & Low Weather Summary

 TemperatureHumidityPressure
High37 °F (Feb 23, 3:52 PM)92% (Feb 20, 5:52 AM)30.90 "Hg (Feb 20, 5:52 AM)
Low-14 °F (Feb 22, 6:52 AM)30% (Feb 23, 3:52 PM)29.71 "Hg (Feb 20, 3:02 AM)
Average12 °F69%30.30 "Hg
* Reported Feb 14 9:52 PM — Mar 1 9:52 PM, Bismarck, Weather by CustomWeather, © 2015

Note: Actual official high and low records may vary slightly from our data, if they occured in-between our weather recording intervals... More about our weather records

Advertising

Bismarck weather history for previous 24 hours

 ConditionsComfort  
Time TempWeatherWind HumidityBarometerVisibility
9:52 PM
Sun, Mar 1
12 °FClear.3 mph77%30.47 "Hg10 mi
8:52 PM6 °FClear.5 mph83%30.48 "Hg10 mi
7:52 PM18 °FClear.3 mph65%30.47 "Hg10 mi
6:52 PM20 °FClear.7 mph60%30.45 "Hg10 mi
5:52 PM23 °FSunny.13 mph53%30.44 "Hg10 mi
4:52 PM23 °FPartly sunny.12 mph57%30.43 "Hg10 mi
3:52 PM26 °FScattered clouds.15 mph44%30.41 "Hg10 mi
2:52 PM26 °FScattered clouds.16 mph48%30.40 "Hg10 mi
1:52 PM24 °FLight snow. Mostly cloudy.20 mph65%30.40 "Hg8 mi
12:52 PM24 °FOvercast.21 mph62%30.39 "Hg10 mi
11:52 AM24 °FOvercast.20 mph62%30.37 "Hg10 mi
10:52 AM23 °FOvercast.12 mph65%30.35 "Hg10 mi
9:52 AM19 °FLight snow. Overcast.15 mph74%30.34 "Hg5 mi
8:52 AM14 °FMostly cloudy.No wind77%30.32 "Hg10 mi
7:52 AM8 °FScattered clouds.No wind79%30.30 "Hg10 mi
6:52 AM7 °FPassing clouds.5 mph79%30.29 "Hg10 mi
5:52 AM7 °FOvercast.No wind76%30.29 "Hg10 mi
4:52 AM6 °FOvercast.3 mph79%30.28 "Hg10 mi
3:52 AM5 °FClear.6 mph80%30.29 "Hg10 mi
2:52 AM3 °FClear.7 mph84%30.29 "Hg10 mi
1:52 AM5 °FClear.8 mph80%30.30 "Hg10 mi
12:52 AM3 °FClear.6 mph84%30.31 "Hg10 mi
11:52 PM
Sat, Feb 28
5 °FClear.6 mph80%30.31 "Hg10 mi
Weather by CustomWeather, © 2015

See weather overviewHow to use our weather pages